EDW57P LEPA-LSZH

Flight info

Callsign EDW57P
Flight time 1h 31m
Altitude 40000
Route MEROS DCT LAPIT DCT CHELY DCT LUMAS DCT MAXIR DCT LUSOL DCT BODRU DCT OKTET DCT IRMAR DCT KINES DCT VANAS DCT MOBLO DCT LAMUR DCT KORED N871 BERSU
Aircraft A343/H-SDE2E3FGHIJ4J5M1P2RWXYZ/LB1D1

Departure

Time 2026-05-04 13:17
Airport Palma de Mallorca Airport (LEPA)

Arrival

Time 2026-05-04 14:49
Airport Zürich Airport (LSZH)
Time Latitude Longitude Altitude Speed Heading
2026-05-04 12:48 39.54950 2.73778 42 ft 0 kts 239°
2026-05-04 13:06 39.54950 2.73779 42 ft 1 kts 239°
2026-05-04 13:06 39.54962 2.73805 41 ft 4 kts 239°
2026-05-04 13:06 39.54976 2.73834 39 ft 3 kts 239°
2026-05-04 13:07 39.54987 2.73860 40 ft 4 kts 259°
2026-05-04 13:07 39.54984 2.73891 42 ft 4 kts 310°
2026-05-04 13:07 39.54964 2.73911 42 ft 4 kts 334°
2026-05-04 13:07 39.54950 2.73920 41 ft 0 kts 329°
2026-05-04 13:11 39.54969 2.73905 42 ft 7 kts 329°
2026-05-04 13:12 39.55033 2.73854 42 ft 15 kts 329°
2026-05-04 13:12 39.55131 2.73778 42 ft 13 kts 328°
2026-05-04 13:12 39.55165 2.73779 42 ft 2 kts 47°
2026-05-04 13:12 39.55178 2.73808 42 ft 6 kts 55°
2026-05-04 13:13 39.55208 2.73820 42 ft 5 kts 353°
2026-05-04 13:13 39.55251 2.73790 42 ft 12 kts 328°
2026-05-04 13:13 39.55358 2.73705 42 ft 22 kts 329°
2026-05-04 13:13 39.55490 2.73604 42 ft 22 kts 328°
2026-05-04 13:14 39.55605 2.73510 42 ft 10 kts 331°
2026-05-04 13:14 39.55669 2.73539 42 ft 12 kts 51°
2026-05-04 13:14 39.55725 2.73646 42 ft 16 kts 59°
2026-05-04 13:14 39.55792 2.73788 42 ft 20 kts 57°
2026-05-04 13:15 39.55873 2.73959 42 ft 24 kts 57°
2026-05-04 13:15 39.55967 2.74153 42 ft 27 kts 57°
2026-05-04 13:15 39.56104 2.74311 42 ft 27 kts 27°
2026-05-04 13:15 39.56219 2.74327 42 ft 9 kts 315°
2026-05-04 13:16 39.56225 2.74280 42 ft 5 kts 274°
2026-05-04 13:16 39.56199 2.74208 42 ft 11 kts 239°
2026-05-04 13:16 39.56123 2.74047 42 ft 42 kts 238°
2026-05-04 13:16 39.55864 2.73500 42 ft 100 kts 239°
2026-05-04 13:17 39.55414 2.72552 46 ft 146 kts 238°
2026-05-04 13:17 39.54856 2.71392 477 ft 156 kts 238°
2026-05-04 13:17 39.54270 2.70149 1079 ft 167 kts 239°
2026-05-04 13:17 39.53650 2.68842 1754 ft 175 kts 237°
2026-05-04 13:18 39.52962 2.67434 2299 ft 194 kts 237°
2026-05-04 13:18 39.52220 2.65916 3139 ft 202 kts 236°
2026-05-04 13:18 39.51463 2.64367 4075 ft 206 kts 236°
2026-05-04 13:18 39.50689 2.62817 5153 ft 203 kts 234°
2026-05-04 13:19 39.49707 2.61511 6098 ft 207 kts 216°
2026-05-04 13:19 39.48421 2.60455 6581 ft 233 kts 211°
2026-05-04 13:19 39.46954 2.59394 7209 ft 247 kts 210°
2026-05-04 13:19 39.45393 2.58381 8054 ft 254 kts 202°
2026-05-04 13:20 39.43625 2.58000 8922 ft 265 kts 180°
2026-05-04 13:20 39.41825 2.58639 9819 ft 276 kts 160°
2026-05-04 13:20 39.40079 2.59776 10469 ft 289 kts 157°
2026-05-04 13:20 39.38240 2.61040 10785 ft 310 kts 156°
2026-05-04 13:21 39.36375 2.62627 11187 ft 331 kts 144°
2026-05-04 13:21 39.34652 2.64672 11835 ft 340 kts 140°
2026-05-04 13:21 39.32934 2.66829 12541 ft 347 kts 140°
2026-05-04 13:21 39.31198 2.69013 13189 ft 354 kts 139°
2026-05-04 13:22 39.29638 2.71552 13825 ft 367 kts 123°
2026-05-04 13:22 39.28775 2.74699 14445 ft 380 kts 101°
2026-05-04 13:22 39.28628 2.78143 15057 ft 388 kts 92°
2026-05-04 13:22 39.28652 2.81658 15675 ft 395 kts 91°
2026-05-04 13:23 39.28680 2.85232 16293 ft 401 kts 91°
2026-05-04 13:23 39.28697 2.88860 16892 ft 408 kts 92°
2026-05-04 13:23 39.28841 2.92547 17478 ft 416 kts 83°
2026-05-04 13:23 39.29658 2.96150 18086 ft 422 kts 64°
2026-05-04 13:24 39.31046 2.99506 18645 ft 427 kts 58°
2026-05-04 13:24 39.32546 3.02824 19289 ft 428 kts 58°
2026-05-04 13:24 39.34054 3.06160 19846 ft 433 kts 59°
2026-05-04 13:25 39.37109 3.12982 20868 ft 444 kts 59°
2026-05-04 13:25 39.38637 3.16415 21410 ft 448 kts 60°
2026-05-04 13:25 39.40196 3.19926 21928 ft 453 kts 60°
2026-05-04 13:25 39.41771 3.23479 22443 ft 458 kts 60°
2026-05-04 13:26 39.43361 3.27066 22942 ft 462 kts 60°
2026-05-04 13:26 39.45007 3.30661 23427 ft 467 kts 59°
2026-05-04 13:26 39.46686 3.34279 23871 ft 471 kts 59°
2026-05-04 13:26 39.48373 3.37923 24308 ft 474 kts 59°
2026-05-04 13:27 39.50068 3.41597 24730 ft 477 kts 59°
2026-05-04 13:27 39.51771 3.45300 25139 ft 480 kts 59°
2026-05-04 13:27 39.53481 3.49025 25609 ft 482 kts 59°
2026-05-04 13:27 39.55196 3.52768 26055 ft 484 kts 59°
2026-05-04 13:28 39.56917 3.56529 26425 ft 487 kts 60°
2026-05-04 13:28 39.58651 3.60324 26807 ft 491 kts 60°
2026-05-04 13:28 39.60394 3.64144 27184 ft 494 kts 60°
2026-05-04 13:28 39.62146 3.67987 27550 ft 497 kts 60°
2026-05-04 13:29 39.63908 3.71859 27917 ft 500 kts 60°
2026-05-04 13:29 39.65678 3.75751 28282 ft 502 kts 60°
2026-05-04 13:29 39.67456 3.79666 28644 ft 505 kts 60°
2026-05-04 13:29 39.69244 3.83610 28979 ft 508 kts 60°
2026-05-04 13:30 39.71043 3.87580 29303 ft 512 kts 60°
2026-05-04 13:30 39.72852 3.91579 29643 ft 514 kts 60°
2026-05-04 13:30 39.74667 3.95596 29988 ft 517 kts 60°
2026-05-04 13:30 39.76495 3.99646 30222 ft 521 kts 60°
2026-05-04 13:31 39.78328 4.03716 30532 ft 523 kts 60°
2026-05-04 13:31 39.80169 4.07807 30832 ft 525 kts 60°
2026-05-04 13:31 39.82027 4.11902 31115 ft 527 kts 59°
2026-05-04 13:31 39.84192 4.15750 31407 ft 529 kts 47°
2026-05-04 13:32 39.86874 4.19010 31674 ft 528 kts 34°
2026-05-04 13:32 39.89982 4.21506 31978 ft 522 kts 21°
2026-05-04 13:32 39.93353 4.23157 32268 ft 514 kts
2026-05-04 13:32 39.96828 4.24182 32630 ft 512 kts
2026-05-04 13:33 40.00325 4.25052 32951 ft 510 kts
2026-05-04 13:33 40.03817 4.25851 33298 ft 509 kts
2026-05-04 13:33 40.07308 4.26628 33653 ft 509 kts
2026-05-04 13:33 40.10796 4.27410 34009 ft 508 kts
2026-05-04 13:34 40.14271 4.28201 34317 ft 507 kts
2026-05-04 13:34 40.17741 4.29005 34643 ft 506 kts
2026-05-04 13:34 40.21198 4.29816 34988 ft 504 kts
2026-05-04 13:34 40.24641 4.30629 35317 ft 502 kts
2026-05-04 13:35 40.28082 4.31445 35599 ft 502 kts
2026-05-04 13:35 40.34939 4.33073 36143 ft 500 kts
2026-05-04 13:35 40.38318 4.33876 36421 ft 500 kts
2026-05-04 13:36 40.41737 4.34689 36708 ft 499 kts
2026-05-04 13:36 40.45150 4.35501 36948 ft 499 kts
2026-05-04 13:36 40.48616 4.36326 37228 ft 498 kts
2026-05-04 13:36 40.52022 4.37141 37490 ft 497 kts
2026-05-04 13:37 40.55378 4.37945 37745 ft 496 kts
2026-05-04 13:37 40.58773 4.38756 38007 ft 496 kts
2026-05-04 13:37 40.62164 4.39566 38258 ft 495 kts
2026-05-04 13:37 40.64451 4.40112 38423 ft 494 kts
2026-05-04 13:38 40.68926 4.41183 38717 ft 493 kts
2026-05-04 13:38 40.72298 4.41992 38914 ft 492 kts
2026-05-04 13:38 40.75667 4.42801 39110 ft 491 kts
2026-05-04 13:38 40.79022 4.43607 39301 ft 490 kts
2026-05-04 13:39 40.82375 4.44414 39487 ft 489 kts
2026-05-04 13:39 40.85720 4.45220 39672 ft 489 kts
2026-05-04 13:39 40.89064 4.46026 39827 ft 488 kts
2026-05-04 13:39 40.92406 4.46829 39941 ft 489 kts
2026-05-04 13:40 40.95762 4.47637 39956 ft 492 kts
2026-05-04 13:40 41.02521 4.49278 39958 ft 493 kts
2026-05-04 13:41 41.09248 4.50921 39960 ft 491 kts
2026-05-04 13:41 41.15977 4.52561 39950 ft 492 kts
2026-05-04 13:42 41.26070 4.55024 39965 ft 492 kts
2026-05-04 13:42 41.32801 4.56671 39952 ft 492 kts
2026-05-04 13:43 41.39531 4.58321 39955 ft 491 kts
2026-05-04 13:43 41.46238 4.59972 39958 ft 489 kts
2026-05-04 13:44 41.51791 4.61339 39956 ft 489 kts
2026-05-04 13:44 41.58483 4.62989 39955 ft 489 kts
2026-05-04 13:45 41.65196 4.64648 39955 ft 489 kts
2026-05-04 13:45 41.71867 4.66531 39958 ft 495 kts 13°
2026-05-04 13:46 41.75064 4.68270 39956 ft 501 kts 24°
2026-05-04 13:46 41.78138 4.70486 39955 ft 502 kts 25°
2026-05-04 13:46 41.84186 4.75252 39958 ft 504 kts 27°
2026-05-04 13:47 41.90145 4.80116 39969 ft 505 kts 27°
2026-05-04 13:47 41.96146 4.85005 39957 ft 505 kts 27°
2026-05-04 13:48 42.02159 4.89879 39964 ft 505 kts 27°
2026-05-04 13:48 42.08178 4.94755 39967 ft 505 kts 27°
2026-05-04 13:49 42.14189 4.99636 39963 ft 505 kts 27°
2026-05-04 13:49 42.20207 5.04534 39974 ft 505 kts 27°
2026-05-04 13:50 42.26223 5.09445 39973 ft 505 kts 27°
2026-05-04 13:50 42.32229 5.14354 39971 ft 506 kts 27°
2026-05-04 13:51 42.38239 5.19277 39978 ft 506 kts 27°
2026-05-04 13:51 42.44270 5.24233 39982 ft 506 kts 27°
2026-05-04 13:52 42.53304 5.31679 39986 ft 507 kts 27°
2026-05-04 13:53 42.59327 5.36656 39993 ft 507 kts 27°
2026-05-04 13:53 42.65338 5.41635 39999 ft 506 kts 27°
2026-05-04 13:54 42.74335 5.49106 39993 ft 505 kts 27°
2026-05-04 13:55 42.83329 5.56602 40001 ft 505 kts 27°
2026-05-04 13:55 42.92319 5.64119 40007 ft 505 kts 28°
2026-05-04 13:56 42.98300 5.69135 40013 ft 505 kts 28°
2026-05-04 13:57 43.07263 5.76673 40025 ft 503 kts 27°
2026-05-04 13:58 43.19129 5.86694 40033 ft 503 kts 28°
2026-05-04 13:58 43.28060 5.94265 40055 ft 503 kts 28°
2026-05-04 13:59 43.34014 5.99328 40035 ft 503 kts 28°
2026-05-04 13:59 43.40260 6.03419 40033 ft 492 kts 10°
2026-05-04 14:00 43.43585 6.04341 40039 ft 484 kts
2026-05-04 14:00 43.53621 6.05579 40035 ft 482 kts 358°
2026-05-04 14:01 43.60312 6.06187 40029 ft 482 kts 358°
2026-05-04 14:02 43.70357 6.07164 40034 ft 482 kts 358°
2026-05-04 14:02 43.77036 6.08425 40034 ft 491 kts 11°
2026-05-04 14:03 43.83393 6.12005 40040 ft 496 kts 21°
2026-05-04 14:03 43.89602 6.16201 40041 ft 496 kts 22°
2026-05-04 14:04 43.98844 6.22614 40046 ft 495 kts 22°
2026-05-04 14:04 44.05028 6.26872 40044 ft 495 kts 22°
2026-05-04 14:05 44.14290 6.33239 40052 ft 495 kts 22°
2026-05-04 14:06 44.20463 6.37492 40053 ft 495 kts 22°
2026-05-04 14:06 44.26632 6.41747 40069 ft 495 kts 22°
2026-05-04 14:07 44.32797 6.46017 40074 ft 494 kts 22°
2026-05-04 14:07 44.38952 6.50287 40075 ft 493 kts 22°
2026-05-04 14:08 44.45091 6.54558 40105 ft 492 kts 23°
2026-05-04 14:08 44.51207 6.58828 40103 ft 490 kts 23°
2026-05-04 14:09 44.60360 6.65227 40112 ft 490 kts 23°
2026-05-04 14:10 44.69470 6.71623 40133 ft 490 kts 23°
2026-05-04 14:10 44.75575 6.75892 40126 ft 489 kts 21°
2026-05-04 14:11 44.82019 6.78486 40137 ft 477 kts
2026-05-04 14:11 44.91842 6.78387 40140 ft 470 kts 352°
2026-05-04 14:12 44.98377 6.77899 40146 ft 470 kts 352°
2026-05-04 14:13 45.08178 6.77187 40147 ft 471 kts 352°
2026-05-04 14:13 45.14717 6.76751 40137 ft 471 kts 352°
2026-05-04 14:14 45.21265 6.76319 40131 ft 470 kts 352°
2026-05-04 14:14 45.31079 6.75668 40127 ft 471 kts 352°
2026-05-04 14:15 45.44186 6.74796 40116 ft 471 kts 352°
2026-05-04 14:16 45.54016 6.74129 40108 ft 471 kts 352°
2026-05-04 14:17 45.63851 6.73447 40114 ft 472 kts 352°
2026-05-04 14:18 45.73698 6.72771 40084 ft 473 kts 352°
2026-05-04 14:18 45.80294 6.72992 40079 ft 480 kts
2026-05-04 14:19 45.86685 6.75930 40074 ft 487 kts 19°
2026-05-04 14:19 45.92893 6.79887 40075 ft 489 kts 22°
2026-05-04 14:20 45.99060 6.84003 40084 ft 489 kts 22°
2026-05-04 14:20 46.05237 6.88109 40066 ft 488 kts 21°
2026-05-04 14:21 46.14473 6.94196 40045 ft 489 kts 21°
2026-05-04 14:21 46.20654 6.98277 40036 ft 489 kts 22°
2026-05-04 14:22 46.23768 7.00338 39743 ft 485 kts 22°
2026-05-04 14:22 46.26817 7.02356 39172 ft 488 kts 21°
2026-05-04 14:22 46.29955 7.04434 38505 ft 492 kts 21°
2026-05-04 14:22 46.33081 7.06506 37715 ft 496 kts 22°
2026-05-04 14:23 46.39356 7.10677 36269 ft 502 kts 22°
2026-05-04 14:23 46.42527 7.12791 35641 ft 502 kts 23°
2026-05-04 14:23 46.45705 7.14912 34962 ft 504 kts 23°
2026-05-04 14:24 46.48894 7.17043 34272 ft 506 kts 24°
2026-05-04 14:24 46.52097 7.19186 33514 ft 507 kts 24°
2026-05-04 14:24 46.55302 7.21333 32730 ft 509 kts 24°
2026-05-04 14:24 46.58518 7.23492 31946 ft 509 kts 24°
2026-05-04 14:25 46.61725 7.25649 31343 ft 507 kts 25°
2026-05-04 14:25 46.68077 7.29922 30331 ft 498 kts 25°
2026-05-04 14:25 46.71209 7.32033 29749 ft 494 kts 25°
2026-05-04 14:26 46.74314 7.34130 29218 ft 489 kts 25°
2026-05-04 14:26 46.77382 7.36204 28700 ft 484 kts 25°
2026-05-04 14:26 46.80423 7.38262 28182 ft 479 kts 25°
2026-05-04 14:26 46.83371 7.40481 27670 ft 474 kts 33°
2026-05-04 14:27 46.85925 7.43466 27169 ft 468 kts 47°
2026-05-04 14:27 46.88119 7.46947 26667 ft 464 kts 51°
2026-05-04 14:27 46.90181 7.50548 26124 ft 460 kts 52°
2026-05-04 14:27 46.92166 7.54199 25603 ft 457 kts 53°
2026-05-04 14:28 46.94108 7.57848 25117 ft 454 kts 53°
2026-05-04 14:28 46.96037 7.61487 24614 ft 451 kts 53°
2026-05-04 14:28 46.97959 7.65102 24116 ft 448 kts 53°
2026-05-04 14:28 46.99871 7.68680 23619 ft 446 kts 53°
2026-05-04 14:29 47.03692 7.75767 22585 ft 439 kts 53°
2026-05-04 14:29 47.07433 7.82711 21643 ft 430 kts 53°
2026-05-04 14:30 47.08654 7.84982 21316 ft 427 kts 53°
2026-05-04 14:30 47.10488 7.88395 20846 ft 423 kts 53°
2026-05-04 14:30 47.13914 7.95314 19915 ft 414 kts 64°
2026-05-04 14:31 47.15190 7.99087 19457 ft 410 kts 66°
2026-05-04 14:31 47.17585 8.06634 18557 ft 404 kts 67°
2026-05-04 14:32 47.19943 8.14060 17617 ft 398 kts 67°
2026-05-04 14:32 47.21138 8.17711 17157 ft 394 kts 63°
2026-05-04 14:32 47.22785 8.20905 16715 ft 393 kts 43°
2026-05-04 14:32 47.25066 8.23034 16264 ft 389 kts 20°
2026-05-04 14:33 47.27688 8.23799 15818 ft 384 kts 359°
2026-05-04 14:33 47.30290 8.23164 15378 ft 378 kts 338°
2026-05-04 14:33 47.32540 8.21276 14933 ft 370 kts 317°
2026-05-04 14:33 47.34235 8.18479 14473 ft 365 kts 304°
2026-05-04 14:34 47.35857 8.15671 14088 ft 365 kts 315°
2026-05-04 14:34 47.37939 8.13538 13660 ft 366 kts 329°
2026-05-04 14:34 47.40194 8.11795 13180 ft 364 kts 331°
2026-05-04 14:34 47.42444 8.10123 12747 ft 361 kts 332°
2026-05-04 14:35 47.44682 8.08460 12329 ft 358 kts 332°
2026-05-04 14:35 47.46899 8.06806 11923 ft 356 kts 332°
2026-05-04 14:35 47.49130 8.05330 11783 ft 346 kts 340°
2026-05-04 14:35 47.51438 8.04618 11790 ft 333 kts 356°
2026-05-04 14:36 47.53689 8.04924 11797 ft 320 kts 15°
2026-05-04 14:36 47.55673 8.06253 11713 ft 310 kts 35°
2026-05-04 14:36 47.57194 8.08433 11582 ft 301 kts 56°
2026-05-04 14:36 47.58112 8.11168 11355 ft 294 kts 77°
2026-05-04 14:37 47.58099 8.14112 11152 ft 284 kts 110°
2026-05-04 14:37 47.57067 8.16505 10890 ft 275 kts 142°
2026-05-04 14:37 47.55369 8.17628 10670 ft 269 kts 174°
2026-05-04 14:37 47.53521 8.17811 10543 ft 266 kts 176°
2026-05-04 14:38 47.51669 8.18101 10431 ft 267 kts 171°
2026-05-04 14:38 47.49889 8.18840 10263 ft 268 kts 153°
2026-05-04 14:38 47.48510 8.20618 10037 ft 269 kts 125°
2026-05-04 14:38 47.47857 8.23193 9796 ft 272 kts 98°
2026-05-04 14:39 47.48074 8.25971 9603 ft 277 kts 72°
2026-05-04 14:39 47.49121 8.28368 9400 ft 282 kts 45°
2026-05-04 14:39 47.50807 8.29824 9150 ft 284 kts 16°
2026-05-04 14:40 47.54506 8.28635 8644 ft 280 kts 317°
2026-05-04 14:40 47.55616 8.26335 8393 ft 275 kts 289°
2026-05-04 14:40 47.55991 8.23594 8156 ft 271 kts 276°
2026-05-04 14:40 47.56531 8.20916 7907 ft 274 kts 298°
2026-05-04 14:41 47.57828 8.18869 7648 ft 276 kts 327°
2026-05-04 14:41 47.59518 8.17533 7351 ft 276 kts 328°
2026-05-04 14:41 47.62974 8.15488 6778 ft 274 kts
2026-05-04 14:42 47.66038 8.18359 6190 ft 270 kts 64°
2026-05-04 14:42 47.66671 8.20944 6010 ft 264 kts 71°
2026-05-04 14:42 47.67489 8.23300 5989 ft 252 kts 59°
2026-05-04 14:43 47.68135 8.25659 5791 ft 245 kts 84°
2026-05-04 14:43 47.67831 8.28080 5543 ft 241 kts 121°
2026-05-04 14:43 47.66629 8.29738 5298 ft 237 kts 150°
2026-05-04 14:43 47.65207 8.30957 5048 ft 236 kts 148°
2026-05-04 14:44 47.63852 8.32333 4799 ft 236 kts 141°
2026-05-04 14:44 47.62625 8.33901 4641 ft 229 kts 137°
2026-05-04 14:44 47.61481 8.35490 4549 ft 222 kts 136°
2026-05-04 14:44 47.60363 8.37035 4368 ft 218 kts 137°
2026-05-04 14:45 47.59253 8.38554 4197 ft 215 kts 137°
2026-05-04 14:45 47.58185 8.40005 4151 ft 200 kts 137°
2026-05-04 14:45 47.57177 8.41372 3891 ft 194 kts 138°
2026-05-04 14:45 47.56205 8.42703 3568 ft 187 kts 138°
2026-05-04 14:46 47.55276 8.43974 3308 ft 177 kts 138°
2026-05-04 14:46 47.54405 8.45162 3102 ft 168 kts 139°
2026-05-04 14:46 47.53568 8.46307 2855 ft 157 kts 140°
2026-05-04 14:46 47.52796 8.47355 2673 ft 149 kts 140°
2026-05-04 14:47 47.52055 8.48371 2472 ft 142 kts 140°
2026-05-04 14:47 47.51330 8.49361 2266 ft 142 kts 138°
2026-05-04 14:47 47.50599 8.50344 2067 ft 143 kts 139°
2026-05-04 14:47 47.49867 8.51347 1878 ft 144 kts 138°
2026-05-04 14:48 47.49126 8.52363 1692 ft 146 kts 138°
2026-05-04 14:48 47.48391 8.53365 1508 ft 142 kts 137°
2026-05-04 14:48 47.47678 8.54330 1410 ft 126 kts 136°
2026-05-04 14:48 47.47151 8.55052 1403 ft 88 kts 137°
2026-05-04 14:49 47.46792 8.55539 1406 ft 44 kts 137°
2026-05-04 14:49 47.46603 8.55800 1407 ft 20 kts 137°
2026-05-04 14:49 47.46488 8.55914 1409 ft 20 kts 156°
2026-05-04 14:49 47.46359 8.55961 1409 ft 19 kts 168°
2026-05-04 14:50 47.46239 8.55996 1414 ft 17 kts 169°
2026-05-04 14:50 47.46126 8.55994 1414 ft 16 kts 186°
2026-05-04 14:50 47.46013 8.55977 1413 ft 17 kts 186°
2026-05-04 14:50 47.45894 8.55943 1417 ft 17 kts 197°
2026-05-04 14:51 47.45785 8.55892 1420 ft 17 kts 197°
2026-05-04 14:51 47.45669 8.55859 1419 ft 13 kts 186°
2026-05-04 14:51 47.45645 8.55819 1419 ft 6 kts 265°
2026-05-04 14:51 47.45646 8.55684 1415 ft 20 kts 271°
2026-05-04 14:52 47.45669 8.55446 1407 ft 25 kts 287°
2026-05-04 14:52 47.45674 8.55233 1410 ft 13 kts 246°
2026-05-04 14:52 47.45618 8.55221 1405 ft 9 kts 160°
2026-05-04 14:52 47.45532 8.55279 1411 ft 17 kts 155°
2026-05-04 14:53 47.45404 8.55368 1410 ft 23 kts 154°
2026-05-04 14:53 47.45244 8.55476 1410 ft 26 kts 156°
2026-05-04 14:53 47.45078 8.55589 1412 ft 27 kts 154°
2026-05-04 14:53 47.44958 8.55719 1412 ft 16 kts 108°
2026-05-04 14:54 47.44947 8.55880 1410 ft 15 kts 97°
2026-05-04 14:54 47.44877 8.55975 1412 ft 15 kts 153°
2026-05-04 14:54 47.44777 8.56043 1407 ft 17 kts 154°
2026-05-04 14:54 47.44686 8.56113 1409 ft 6 kts 147°
2026-05-04 14:55 47.44685 8.56131 1411 ft 1 kts 85°
2026-05-04 14:55 47.44691 8.56151 1408 ft 5 kts 72°
2026-05-04 14:55 47.44707 8.56208 1406 ft 2 kts 65°
2026-05-04 14:55 47.44712 8.56225 1407 ft 1 kts 65°
2026-05-04 14:56 47.44713 8.56227 1410 ft 0 kts 65°